(247) Eukrate
ephemeris date magn radius delta ra dec elong phase
Today5 Jul 202513.62.595 AU3.359 AU09h30m+25°26'35.2°13.1°
Opposition6 Apr 202612.83.208 AU2.221 AU12h46m-17°12'168.7°3.5°
(247) Eukrate - 2025-07-05
astro.vanbuitenen.nl


 
-1 year
-1 month
-1 day
Now
+1 day
+1 month
+1 year

The interactive orbit chart above shows the body's path through the solar system and its position at the given date. Green and blue lines are shown perpendicular to the ecliptic plane: Green if the path is above the ecliptic plane, blue if it is below. (Left-click and drag to rotate the view; Right-click and drag to move the view; Use scroll wheel to zoom in our out.)

The orbital elements of Eukrate are:

            e (Eccentricity)                : 0.2465000
            a (Semimajor axis)              : 2.7396832
            i (Inclination)                 : 24.95339
            Ω (Longitude of ascending node) : 0.01869
            ω (Argument of perihelion)      : 55.29903
            M (Mean anomaly)                : 50.59313
            Epoch                           : 2025 May 05

            L (Longitude of perihelion)     : 52.64779
            B (Latitude of perihelion)      : 20.29433
            P (Orbital period in years)     : 4.53            
        

The light curve chart below shows the estimated development of the minor planet's magnitude.


The all-sky chart below shows the path of the minor planet over the same period as the light curve. The current position is marked yellow.





The following chart shows the path of the minor planet in the next few days. The field of view is optimized for (~10x50) binoculars and finderscopes. A more printer-friendly version of the same chart can be found below.




Ephemerides:
Date       Time       RA (2000)    DEC (2000)    delta   radius  elong  phase   PA    magn
2025-07-05 00:00 UT   09 30 32.7   +25 26 54     3.359    2.595   35.2   13.1    94   13.6 
2025-07-05 23:45 UT   09 32 09.3   +25 14 10     3.368    2.598   34.7   12.9    94   13.6 
2025-07-06 00:00 UT   09 32 10.4   +25 14 02     3.368    2.598   34.7   12.9    94   13.6 
2025-07-07 00:00 UT   09 33 47.8   +25 01 09     3.378    2.600   34.2   12.7    94   13.6 
2025-07-08 00:00 UT   09 35 25.0   +24 48 16     3.388    2.603   33.7   12.5    94   13.6 
2025-07-09 00:00 UT   09 37 02.0   +24 35 23     3.397    2.606   33.1   12.3    94   13.6 
2025-07-10 00:00 UT   09 38 38.8   +24 22 30     3.407    2.608   32.6   12.1    94   13.6 
2025-07-11 00:00 UT   09 40 15.4   +24 09 37     3.416    2.611   32.1   11.9    94   13.6 
2025-07-12 00:00 UT   09 41 51.7   +23 56 43     3.425    2.614   31.5   11.7    93   13.6 
2025-07-13 00:00 UT   09 43 27.8   +23 43 50     3.434    2.616   31.0   11.6    93   13.6 
2025-07-14 00:00 UT   09 45 03.7   +23 30 56     3.443    2.619   30.5   11.4    93   13.6 
2025-07-15 00:00 UT   09 46 39.4   +23 18 03     3.452    2.622   30.0   11.2    93   13.6 
2025-07-16 00:00 UT   09 48 14.8   +23 05 09     3.461    2.624   29.4   11.0    93   13.6 
2025-07-17 00:00 UT   09 49 50.1   +22 52 15     3.470    2.627   28.9   10.8    93   13.6 
2025-07-18 00:00 UT   09 51 25.1   +22 39 21     3.479    2.630   28.4   10.6    93   13.6 
2025-07-19 00:00 UT   09 52 59.9   +22 26 27     3.487    2.632   27.9   10.4    93   13.6 
2025-07-20 00:00 UT   09 54 34.5   +22 13 33     3.496    2.635   27.3   10.2    92   13.6 
2025-07-21 00:00 UT   09 56 08.9   +22 00 39     3.504    2.637   26.8   10.0    92   13.6 
2025-07-22 00:00 UT   09 57 43.1   +21 47 45     3.512    2.640   26.3    9.8    92   13.6 
2025-07-23 00:00 UT   09 59 17.1   +21 34 51     3.520    2.643   25.8    9.6    92   13.6 
2025-07-24 00:00 UT   10 00 50.9   +21 21 56     3.528    2.645   25.2    9.4    92   13.6 
2025-07-25 00:00 UT   10 02 24.4   +21 09 02     3.536    2.648   24.7    9.2    91   13.6 


    Terminology:
            
    delta:  distance between minor planet and earth in AU
    radius: distance between minor planet and sun in AU
    magn:   magnitude (brightness) estimate    
    ra:     right ascension in hours (24h = 360deg)
    dec:    declination in degrees
    elong:  elongation in degrees (angle sun-earth-minor planet)    
    phase:  phase angle in degrees (angle sun-minor planet-earth)        
    AU:     Astronomical Unit (mean distance between earth and sun: 149597870.7 km
    

Orbital elements provided by the MPC (Minor Planet Center).
Calculations by a modified version of AAPlus, a C# implementation of the AA+ project by PJ Naughter from the algorithms presented in the book "Astronomical Algorithms" by Jean Meeus.
NGC2000 dso catalog and star labels from VizieR as provided by the Strasbourg astronomical Data Center.
Tycho2 catalog from the ESO archive.